Simultaneous Nadir Overpasses (SNOs) Predictions

Prediction of SNOs between METOP-A and NOAA-19 Satellite Orbit:

Table of predicted SNOs for the next 14.0 days since TLE Epoch: 4/1/2013
Index Date (METOP-A) Time (METOP-A) Lat,Lon (METOP-A) SZA (METOP-A ) Date (NOAA-19) Time (NOAA-19) Lat,Lon (NOAA-19) SZA (NOAA-19 ) Distance(km) Time Diff (sec)
1 04/09/2013 09:00:41 -74.08,-140.69 113.61 04/09/2013 08:59:34 -74.07,-143.73 113.50 92.64 67
2 04/09/2013 09:51:34 73.42, 25.07 65.77 04/09/2013 09:50:23 73.41, 25.11 65.77 1.71 71
3 04/09/2013 10:42:16 -73.42,-167.60 114.24 04/09/2013 10:41:25 -73.40,-167.62 114.26 2.61 51
4 04/09/2013 11:32:56 73.40, -0.30 65.73 04/09/2013 11:32:27 73.38, -0.33 65.71 3.15 29
5 04/09/2013 12:23:39 -73.36, 166.91 114.33 04/09/2013 12:23:29 -73.37, 166.93 114.32 1.40 10
6
